DW4707 Campi Bisenzio - Firenze IT current weather conditions

sailwx.info

Last reported at 2014-Dec-07 14:16 UTC.
Time now 2015-Jan-30 10:57 UTC

Location: N 43°50' E 011°08'.
View on Google Maps.

See reports from other nearby stations

  
Tides and Currents Weather Stations Pressure Air Temp Water Temp Dewpoint Dewpoint Depression Visibility Wind Speed Wind Dir Waves Ship Positions
date/time (UTC)wind fromknots sea level pressurealtimeterstation pressurevisibilityair tempwater tempwave heightnotes
2015-Jan-30 09:46 252 6.7
2015-Jan-30 09:36 7.2
2015-Jan-30 09:26 338 7.2
2015-Jan-30 09:16 022 0 gusting 0 7.8
2015-Jan-30 09:06 8.3
2015-Jan-30 08:56 022 8.3
2015-Jan-30 08:46 8.3
2015-Jan-30 08:36 338 8.3
2015-Jan-30 08:26 022 8.3
2015-Jan-30 08:16 158 0 gusting 1 8.3
2015-Jan-30 08:06 158 8.3
2015-Jan-30 07:56 270 8.9
2015-Jan-30 07:46 022 8.9
2015-Jan-30 07:36 112 8.9
2015-Jan-30 07:26 158 8.9
2015-Jan-30 07:16 045 8.9
2015-Jan-30 07:06 8.9
2015-Jan-30 06:56 022 8.9
2015-Jan-30 06:46 135 8.9
2015-Jan-30 06:36 022 8.9
2015-Jan-30 06:26 8.9
2015-Jan-30 06:16 022 8.9
2015-Jan-30 06:06 8.9
2015-Jan-30 05:56 022 8.9
2015-Jan-30 05:46 045 9.4
2015-Jan-30 05:36 057 9.4
2015-Jan-30 05:26 9.4
2015-Jan-30 05:16 022 9.4
2015-Jan-30 05:06 038 1 gusting 1 10.0
2015-Jan-30 04:56 005 0 gusting 1 10.0
2015-Jan-30 04:46 045 10.0
2015-Jan-30 04:36 315 0 gusting 1 9.4
2015-Jan-30 04:26 313 9.4
2015-Jan-30 04:17 225 9.4
2015-Jan-30 04:06 068 0 gusting 0 9.4
2015-Jan-30 03:56 202 9.4
2015-Jan-30 03:46 135 8.9
2015-Jan-30 03:36 199 8.9
2015-Jan-30 03:26 180 8.3
2015-Jan-30 03:16 8.3
2015-Jan-30 03:06 356 8.3
2015-Jan-30 02:56 022 0 gusting 1 8.3
2015-Jan-30 02:46 022 8.3
2015-Jan-30 02:36 335 0 gusting 2 8.3
2015-Jan-30 02:26 8.3
2015-Jan-30 02:16 022 8.3
2015-Jan-30 02:06 038 8.3
2015-Jan-30 01:56 022 0 gusting 0 8.3
2015-Jan-30 01:46 338 0 gusting 0 7.8
2015-Jan-30 01:36 022 7.8
2015-Jan-30 01:26 7.8
2015-Jan-30 01:16 022 7.8
2015-Jan-30 01:06 028 7.8
2015-Jan-30 00:56 7.8
2015-Jan-30 00:46 022 7.8
2015-Jan-30 00:36 021 7.8
2015-Jan-30 00:26 013 8.3
2015-Jan-30 00:16 180 8.3
2015-Jan-30 00:06 180 7.8
2015-Jan-29 23:56 045 7.8
2015-Jan-29 23:46 158 7.8
2015-Jan-29 23:36 180 7.8
2015-Jan-29 23:26 158 7.2
2015-Jan-29 23:16 338 6.7
2015-Jan-29 23:06 6.1
2015-Jan-29 22:56 022 6.1
2015-Jan-29 22:46 6.1
2015-Jan-29 22:36 248 5.6
2015-Jan-29 22:26 342 5.6
2015-Jan-29 22:16 180 5.0
2015-Jan-29 22:06 068 5.0
2015-Jan-29 21:56 022 4.4
2015-Jan-29 21:46 025 4.4
2015-Jan-29 21:36 018 3.9
2015-Jan-29 21:27 025 3.9
2015-Jan-29 21:16 3.9
2015-Jan-29 21:06 023 3.9
2015-Jan-29 20:56 041 3.3
2015-Jan-29 20:46 3.3
2015-Jan-29 20:37 3.3
2015-Jan-29 20:26 200 3.3
2015-Jan-29 20:16 158 3.3
2015-Jan-29 20:06 315 3.3
2015-Jan-29 19:56 292 3.3
2015-Jan-29 19:46 338 3.3
2015-Jan-29 19:36 295 3.3
2015-Jan-29 19:26 180 3.3
2015-Jan-29 19:16 3.3
2015-Jan-29 18:56 180 3.3
2015-Jan-29 18:46 292 3.3
2015-Jan-29 18:36 297 3.3
2015-Jan-29 18:26 142 3.3
2015-Jan-29 18:16 045 3.3
2015-Jan-29 18:06 3.3
2015-Jan-29 17:56 315 3.3
2015-Jan-29 17:46 315 3.3
2015-Jan-29 17:37 202 3.3
2015-Jan-29 17:26 072 3.3
2015-Jan-29 17:16 180 3.3
2015-Jan-29 17:06 3.3
2015-Jan-29 16:56 141 3.3
2015-Jan-29 16:46 202 3.3
2015-Jan-29 16:36 338 3.3
2015-Jan-29 16:26 339 3.3
2015-Jan-29 16:16 3.3
2015-Jan-29 16:06 3.3
2015-Jan-29 15:56 179 2.8
2015-Jan-29 15:46 022 3.3
2015-Jan-29 15:36 2.8
2015-Jan-29 15:26 090 2.8
2015-Jan-29 15:16 338 2.8
2015-Jan-29 15:06 338 2.8
2015-Jan-29 14:56 194 2.8
2015-Jan-29 14:46 2.8
2015-Jan-29 14:36 045 2.8
2015-Jan-29 14:26 135 2.8
2015-Jan-29 14:16 338 2.8
2015-Jan-29 14:06 022 2.8
2015-Jan-29 13:56 068 2.8
2015-Jan-29 13:46 158 2.8
2015-Jan-29 13:36 019 2.8
2015-Jan-29 13:26 006 2.8
2015-Jan-29 13:16 022 2.8
2015-Jan-29 13:06 100 3.3
2015-Jan-29 12:56 129 3.3
2015-Jan-29 12:46 022 3.3
2015-Jan-29 12:36 022 3.3
2015-Jan-29 12:26 021 3.3
2015-Jan-29 12:16 022 3.9
2015-Jan-29 12:06 3.9
2015-Jan-29 11:56 031 3.9
2015-Jan-29 11:46 068 3.9
2015-Jan-29 11:36 265 3.9
2015-Jan-29 11:26 078 3.9
2015-Jan-29 11:16 068 3.9
2015-Jan-29 11:06 3.9
2015-Jan-29 10:56 141 3.9
2015-Jan-29 10:46 338 3.3
2015-Jan-29 10:36 338 3.3
2015-Jan-29 10:26 3.3
2015-Jan-29 10:16 202 3.3
2015-Jan-29 10:06 2.8
2015-Jan-29 09:56 320 2.8
2015-Jan-29 09:46 2.8
2015-Jan-29 09:36 2.8
2015-Jan-29 09:26 069 2.2
2015-Jan-29 09:16 072 2.2
2015-Jan-29 09:06 248 2.2
2015-Jan-29 08:56 180 2.2
2015-Jan-29 08:46 180 2.2
2015-Jan-29 08:36 045 2.2
2015-Jan-29 08:26 051 2.2
2015-Jan-29 08:16 112 1.7
2015-Jan-29 08:06 112 1.7
2015-Jan-29 07:56 022 1.7
2015-Jan-29 07:46 180 1.7
2015-Jan-29 07:36 045 1.7
2015-Jan-29 07:26 022 1.7
2015-Jan-29 07:16 022 1.7
2015-Jan-29 07:06 068 1.7
2015-Jan-29 06:56 122 1.1
2015-Jan-29 06:46 090 1.1
2015-Jan-29 05:46 040 0.6
2015-Jan-29 05:36 045 0.6
2015-Jan-29 05:27 078 0.6
2015-Jan-29 05:16 045 0.6
2015-Jan-29 05:06 045 0.6
2015-Jan-29 04:57 174 0.6
2015-Jan-29 04:46 045 0.6
2015-Jan-29 04:36 202 0.6
2015-Jan-29 04:26 147 0.6
2015-Jan-29 04:17 180 0.6
2015-Jan-29 04:06 180 -0.0
2015-Jan-29 03:56 180 -0.0
2015-Jan-29 03:46 158 -0.0
2015-Jan-29 03:36 158 -0.0
2015-Jan-29 03:26 180 -0.0
2015-Jan-29 03:16 090 -0.0
2015-Jan-29 03:06 202 -0.0
2015-Jan-29 02:56 158 -0.0
2015-Jan-29 02:46 116 -0.0
2015-Jan-29 02:36 180 -0.0
2015-Jan-29 02:27 171 -0.0
2015-Jan-29 02:16 010 -0.0
2015-Jan-29 02:07 202 0.6
2015-Jan-29 01:57 158 -0.0
2015-Jan-29 01:46 165 -0.0
2015-Jan-29 01:36 152 -0.0
2015-Jan-29 01:26 180 -0.0
2015-Jan-29 01:16 180 -0.0
2015-Jan-29 01:06 135 -0.0
2015-Jan-29 00:56 158 -0.0
2015-Jan-29 00:46 118 -0.0
2015-Jan-29 00:36 158 -0.0
2015-Jan-29 00:27 068 0.6
2015-Jan-29 00:16 158 0.6
2015-Jan-29 00:07 022 1.1
2015-Jan-28 23:56 349 1.1
2015-Jan-28 23:46 011 1.1
2015-Jan-28 23:36 0.6
2015-Jan-28 23:26 180 0.6
2015-Jan-28 23:16 202 0.6
2015-Jan-28 23:06 225 1.1
2015-Jan-28 22:56 202 1.1
2015-Jan-28 22:46 202 1.1
2015-Jan-28 22:36 202 1.1
2015-Jan-28 22:26 202 1.1
2015-Jan-28 22:16 202 1.1
2015-Jan-28 22:06 202 1.1
2015-Jan-28 21:56 202 1.7
2015-Jan-28 21:46 202 1.7
2015-Jan-28 21:36 270 1.7
2015-Jan-28 21:27 270 1.7
2015-Jan-28 21:17 248 1.7
2015-Jan-28 21:07 202 2.2
2015-Jan-28 20:57 180 2.2
2015-Jan-28 20:47 180 2.8
2015-Jan-28 20:37 180 3.9
2015-Jan-28 20:27 225 3.9
2015-Jan-28 20:16 202 3.9
2015-Jan-28 20:06 225 3.9
2015-Jan-28 19:57 225 5.0
2015-Jan-28 19:47 202 5.0
2015-Jan-28 19:37 202 5.0
2015-Jan-28 19:27 022 4.4
2015-Jan-28 19:17 180 4.4
2015-Jan-28 19:07 022 5.0
2015-Jan-28 18:57 158 5.0
2015-Jan-28 18:47 202 5.6
2015-Jan-28 18:36 225 6.1
2015-Jan-28 18:27 180 6.1
2015-Jan-28 18:17 037 6.1
2015-Jan-28 18:06 180 6.1
2015-Jan-28 17:57 022 5.6
2015-Jan-28 17:47 5.6
2015-Jan-28 17:37 6.1
2015-Jan-28 17:27 180 6.7
2015-Jan-28 17:16 180 7.2
2015-Jan-28 17:06 180 7.8
2015-Jan-28 16:56 225 8.3
2015-Jan-28 16:46 124 8.3
2015-Jan-28 16:36 045 2 gusting 5 8.3
2015-Jan-28 16:26 338 0 gusting 1 8.9
2015-Jan-28 16:16 048 0 gusting 0 8.9
2015-Jan-28 16:06 045 0 gusting 0 9.4
2015-Jan-28 15:56 045 9.4
2015-Jan-28 15:46 351 10.0
2015-Jan-28 15:36 10.0
2015-Jan-28 15:26 022 10.0
2015-Jan-28 15:16 098 10.0
2015-Jan-28 15:06 030 10.0
2015-Jan-28 14:56 292 10.6
2015-Jan-28 14:46 034 10.6
2015-Jan-28 14:36 022 10.6
2015-Jan-28 14:26 090 0 gusting 0 10.6
2015-Jan-28 14:16 180 2 gusting 2 10.6
2015-Jan-28 14:06 067 0 gusting 2 10.6
2015-Jan-28 13:56 10.6
2015-Jan-28 13:46 326 10.6
2015-Jan-28 13:36 10.6
2015-Jan-28 13:26 022 1 gusting 1 10.6
2015-Jan-28 13:16 327 1 gusting 1 10.6
2015-Jan-28 13:06 022 10.6
2015-Jan-28 12:56 022 0 gusting 4 10.6
2015-Jan-28 12:46 013 10.6
2015-Jan-28 12:36 068 4 gusting 4 10.6
2015-Jan-28 12:27 022 1 gusting 2 10.6
2015-Jan-28 12:16 338 3 gusting 5 10.6
2015-Jan-28 12:06 180 10.6
2015-Jan-28 11:56 045 10.6
2015-Jan-28 11:46 004 10.6
2015-Jan-28 11:37 045 10.6
2015-Jan-28 11:26 022 10.0
2015-Jan-28 11:16 034 10.0
2015-Jan-28 11:06 015 0 gusting 1 10.0
2015-Jan-28 10:56 022 9.4
2015-Jan-28 10:47 022 0 gusting 1 9.4
2015-Jan-28 10:36 045 2 gusting 2 8.9
2015-Jan-28 10:26 022 8.3
2015-Jan-28 10:17 022 1 gusting 1 7.8
2015-Jan-28 10:06 007 7.2